Starlink 11587

operational
NORAD ID: 63310 Int'l Des: 2025-057 Owner: SPXS Country: US Constellation: starlink
LEOCIRCULAR

关于 Starlink 11587

正在加载描述...

实时位置

正在加载3D地球...

即将过境

高度历史

Altitude vs Time

uPlot chart will show altitude changes over time

两行轨道根数

1 63310U 25057D 25305.31454736 .00343140 00000-0 25556-2 0 9990
2 63310 42.9985 318.6832 0000992 189.7516 170.3333 15.70962136 36986
Epoch: Nov 1, 2025 • Age: 29 hours

当前状态

高度 366.2 km
速度 7.69 km/s
星下点 -41.49°S, 21.26°W
发射日期 Mar 18, 2025
运行时间 0.6 years
类型 internet

技术详情

分类 Payload
质量 960.00 kg
干质量 910.00 kg
总质量 960.00 kg
长度 0.30 m
直径 4.10 m
跨度 29.00 m
形状 Box + pan
制造商 SPXS
平台类型 Starlink V2MD
阶段状态 In Orbit
所有者/国家 SPXS/US

大型星座

Loading constellations...